Location: Burgerwiesen
(48.6500°N, 15.6167°E)
Time: 13:27:42
(UTC+00:00)

Lacrosse 5 rocket - Pass Details

Date: 09 April 2020
Orbit: 458 x 638 km, 57.0° (Epoch: 25 May)

Event Time Altitude Azimuth Distance (km) Brightness Sun altitude
Exits shadow 23:54:19 14° 49° (NE) 1,479 4.1 -32.0°
Drops below altitude 10° 23:54:56 10° 51° (NE) 1,722 4.4 -32.0°
Sets 23:57:12 0° 55° (NE) 2,642 5.5 -31.9°
